FW7718 Weather Reports


Display with metric or nautical units.
time (UTC)temp
F
wind
direction
speed
MPH
gust
MPH
rain 1hr
in
rain 24hr
in
rain mn
in
humidity
%
barometer
mb
20260906181028 96 214 4.0 5.0 0.00 0.00 0.00 46 1015.2
20260906180522 97 162 5.0 6.0 0.00 0.00 0.00 45 1015.3
20260906180021 96 121 3.0 3.0 0.00 0.00 0.00 46 1015.3
20260906175521 97 192 9.0 9.0 0.00 0.00 0.00 47 1015.1
20260906175021 97 182 6.0 8.0 0.00 0.00 0.00 45 1015.3
20260906174519 97 86 9.0 11.0 0.00 0.00 0.00 46 1015.6
20260906174014 97 123 9.0 13.0 0.00 0.00 0.00 45 1015.3
20260906173509 96 175 3.0 3.0 0.00 0.00 0.00 47 1015.6
20260906173005 95 86 5.0 7.0 0.00 0.00 0.00 47 1015.8
20260906172459 96 76 5.0 5.0 0.00 0.00 0.00 45 1015.7
20260906171954 96 139 3.0 3.0 0.00 0.00 0.00 47 1015.8
20260906171449 95 89 3.0 3.0 0.00 0.00 0.00 47 1015.7
20260906170944 95 180 5.0 6.0 0.00 0.00 0.00 47 1015.9
20260906170441 96 147 5.0 5.0 0.00 0.00 0.00 47 1015.8
20260906165938 96 76 5.0 6.0 0.00 0.00 0.00 46 1015.8
20260906165437 96 87 2.0 3.0 0.00 0.00 0.00 46 1015.9
20260906164932 95 105 1.0 2.0 0.00 0.00 0.00 47 1016.0
20260906164430 95 94 3.0 3.0 0.00 0.00 0.00 49 1016.1
20260906163927 94 139 2.0 2.0 0.00 0.00 0.00 49 1015.9
20260906163423 95 128 9.0 10.0 0.00 0.00 0.00 50 1016.1
20260906162921 94 164 2.0 3.0 0.00 0.00 0.00 51 1016.1
20260906162419 93 175 2.0 2.0 0.00 0.00 0.00 52 1016.1
20260906161915 94 141 4.0 5.0 0.00 0.00 0.00 53 1016.1
20260906161414 93 146 1.0 1.0 0.00 0.00 0.00 51 1016.0
20260906160913 93 147 7.0 8.0 0.00 0.00 0.00 52 1016.1
20260906160407 93 133 3.0 3.0 0.00 0.00 0.00 52 1015.8
20260906155905 92 86 3.0 5.0 0.00 0.00 0.00 54 1016.0
20260906155359 92 108 7.0 8.0 0.00 0.00 0.00 53 1016.1
20260906154856 92 78 5.0 6.0 0.00 0.00 0.00 52 1016.1
20260906154354 91 88 7.0 8.0 0.00 0.00 0.00 56 1016.0
20260906153853 91 92 2.0 2.0 0.00 0.00 0.00 56 1015.9
20260906153347 91 89 7.0 9.0 0.00 0.00 0.00 56 1015.8
20260906152842 91 127 5.0 6.0 0.00 0.00 0.00 56 1015.9
20260906152337 91 88 5.0 6.0 0.00 0.00 0.00 58 1015.7
20260906151837 91 95 1.0 1.0 0.00 0.00 0.00 57 1015.7
20260906151332 90 94 3.0 6.0 0.00 0.00 0.00 60 1015.9
20260906150828 91 47 5.0 5.0 0.00 0.00 0.00 58 1015.9
20260906150323 91 111 4.0 5.0 0.00 0.00 0.00 61 1015.9
20260906145822 90 78 3.0 3.0 0.00 0.00 0.00 61 1015.8
20260906145321 89 113 0.0 1.0 0.00 0.00 0.00 65 1015.9
20260906144816 88 91 1.0 2.0 0.00 0.00 0.00 66 1015.9
20260906144311 88 112 1.0 1.0 0.00 0.00 0.00 68 1016.0
20260906143811 87 112 3.0 3.0 0.00 0.00 0.00 69 1016.0
20260906143308 87 65 4.0 5.0 0.00 0.00 0.00 69 1016.0
20260906142803 86 51 2.0 2.0 0.00 0.00 0.00 71 1015.9
20260906142258 85 81 2.0 2.0 0.00 0.00 0.00 72 1016.0
20260906141756 85 70 1.0 2.0 0.00 0.00 0.00 74 1016.1
20260906141251 85 79 1.0 1.0 0.00 0.00 0.00 75 1016.1
20260906140750 85 92 1.0 1.0 0.00 0.00 0.00 76 1015.9
20260906140245 84 93 1.0 1.0 0.00 0.00 0.00 77 1016.0
20260906135743 84 83 1.0 1.0 0.00 0.00 0.00 77 1015.8
20260906135238 83 83 0.0 0.0 0.00 0.00 0.00 80 1016.0
20260906134734 81 83 1.0 1.0 0.00 0.00 0.00 84 1016.0
20260906134229 80 97 0.0 1.0 0.00 0.00 0.00 86 1016.1
20260906133724 80 81 1.0 1.0 0.00 0.00 0.00 88 1015.9
20260906133220 79 77 0.0 0.0 0.00 0.00 0.00 90 1016.1
20260906132715 78 81 1.0 1.0 0.00 0.00 0.00 91 1016.3
20260906132210 78 77 2.0 2.0 0.00 0.00 0.00 92 1016.0
20260906131706 77 174 2.0 2.0 0.00 0.00 0.00 93 1016.1
20260906131201 77 175 1.0 2.0 0.00 0.00 0.00 93 1016.2
20260906130655 76 175 1.0 2.0 0.00 0.00 0.00 94 1016.0
20260906130151 76 176 0.0 1.0 0.00 0.00 0.00 94 1016.0
20260906125643 75 176 0.0 1.0 0.00 0.00 0.00 94 1016.0
20260906125142 75 176 1.0 1.0 0.00 0.00 0.00 95 1016.0
20260906124638 74 176 0.0 1.0 0.00 0.00 0.00 95 1015.8
20260906124133 73 176 0.0 0.0 0.00 0.00 0.00 95 1015.9
20260906123632 73 176 0.0 0.0 0.00 0.00 0.00 95 1015.6
20260906123127 73 176 0.0 0.0 0.00 0.00 0.00 95 1015.5
20260906122626 73 176 0.0 0.0 0.00 0.00 0.00 95 1015.6
20260906122122 73 176 0.0 0.0 0.00 0.00 0.00 95 1015.4
20260906121618 73 177 0.0 0.0 0.00 0.00 0.00 95 1015.4
20260906121114 73 177 0.0 0.0 0.00 0.00 0.00 95 1015.5
20260906120609 74 177 1.0 1.0 0.00 0.00 0.00 95 1015.6
20260906120107 74 177 0.0 0.0 0.00 0.00 0.00 95 1015.3
20260906115606 74 177 0.0 0.0 0.00 0.00 0.00 95 1015.1
20260906115102 74 177 0.0 0.0 0.00 0.00 0.00 95 1015.2
20260906114556 74 177 0.0 0.0 0.00 0.00 0.00 95 1015.1
20260906114051 74 177 0.0 0.0 0.00 0.00 0.00 95 1015.1
20260906113550 74 177 0.0 0.0 0.00 0.00 0.00 95 1015.3
20260906113045 74 177 0.0 0.0 0.00 0.00 0.00 95 1015.0
20260906112540 74 177 0.0 0.0 0.00 0.00 0.00 95 1015.1
20260906112037 74 177 0.0 0.0 0.00 0.00 0.00 95 1015.0
20260906111536 75 177 0.0 0.0 0.00 0.00 0.00 95 1015.1
20260906111032 75 177 0.0 0.0 0.00 0.00 0.00 94 1015.1
20260906110531 75 178 1.0 1.0 0.00 0.00 0.00 94 1014.7
20260906110031 74 178 1.0 2.0 0.00 0.00 0.00 95 1014.8
20260906105526 74 177 1.0 1.0 0.00 0.00 0.00 94 1014.8
20260906105022 74 177 0.0 0.0 0.00 0.00 0.00 94 1014.8
20260906104520 73 177 0.0 0.0 0.00 0.00 0.00 94 1014.6
20260906104015 73 177 0.0 0.0 0.00 0.00 0.00 94 1015.0
20260906103513 73 177 0.0 0.0 0.00 0.00 0.00 93 1014.9
20260906103009 74 177 0.0 0.0 0.00 0.00 0.00 93 1014.8
20260906102508 74 177 0.0 0.0 0.00 0.00 0.00 94 1015.0
20260906102003 74 177 0.0 0.0 0.00 0.00 0.00 94 1014.8
20260906101458 75 177 0.0 0.0 0.00 0.00 0.00 94 1014.8
20260906100952 74 177 0.0 0.0 0.00 0.00 0.00 93 1014.8
20260906100448 74 177 0.0 0.0 0.00 0.00 0.00 93 1014.9
20260906095942 74 177 0.0 0.0 0.00 0.00 0.00 93 1014.7
20260906095437 75 177 0.0 0.0 0.00 0.00 0.00 93 1014.9
20260906094932 75 177 1.0 1.0 0.00 0.00 0.00 92 1014.7
20260906094426 75 177 0.0 0.0 0.00 0.00 0.00 92 1014.6
20260906093922 75 177 1.0 1.0 0.00 0.00 0.00 92 1014.4
20260906093418 75 177 0.0 0.0 0.00 0.00 0.00 92 1014.5
20260906092913 75 177 0.0 0.0 0.00 0.00 0.00 92 1014.5
20260906092412 75 177 0.0 0.0 0.00 0.00 0.00 91 1014.2
20260906091908 75 177 0.0 0.0 0.00 0.00 0.00 91 1014.4
20260906091404 75 177 1.0 1.0 0.00 0.00 0.00 91 1014.4
20260906090900 75 177 1.0 1.0 0.00 0.00 0.00 91 1014.4
20260906090400 76 177 1.0 1.0 0.00 0.00 0.00 90 1014.2
20260906085854 76 177 1.0 1.0 0.00 0.00 0.00 90 1014.2
20260906085353 76 177 1.0 1.0 0.00 0.00 0.00 90 1014.4
20260906084843 76 178 1.0 1.0 0.00 0.00 0.00 89 1014.3
20260906084343 76 178 0.0 0.0 0.00 0.00 0.00 89 1014.0
20260906083837 76 178 1.0 1.0 0.00 0.00 0.00 89 1014.1
20260906083332 76 178 0.0 0.0 0.00 0.00 0.00 89 1014.1
20260906082826 77 178 1.0 1.0 0.00 0.00 0.00 88 1014.2
20260906082322 77 179 1.0 1.0 0.00 0.00 0.00 88 1014.2
20260906081818 77 179 0.0 1.0 0.00 0.00 0.00 88 1014.0
20260906081313 77 180 1.0 1.0 0.00 0.00 0.00 88 1013.8
20260906080809 77 188 2.0 2.0 0.00 0.00 0.00 88 1014.1
20260906080305 77 154 2.0 2.0 0.00 0.00 0.00 88 1014.2
20260906075805 77 166 3.0 5.0 0.00 0.00 0.00 88 1014.1
20260906075306 77 151 3.0 3.0 0.00 0.00 0.00 88 1014.1
20260906074800 77 171 3.0 3.0 0.00 0.00 0.00 87 1014.2
20260906074259 77 178 2.0 3.0 0.00 0.00 0.00 87 1014.2
20260906073759 77 192 2.0 2.0 0.00 0.00 0.00 87 1014.2
20260906073253 77 192 2.0 2.0 0.00 0.00 0.00 87 1014.2
20260906072750 77 192 1.0 1.0 0.00 0.00 0.00 86 1014.4
20260906072245 77 192 2.0 2.0 0.00 0.00 0.00 86 1014.2
20260906071741 77 192 1.0 1.0 0.00 0.00 0.00 86 1014.3
20260906071241 77 192 1.0 1.0 0.00 0.00 0.00 85 1014.4
20260906070738 77 192 1.0 1.0 0.00 0.00 0.00 85 1014.4
20260906070233 78 192 1.0 1.0 0.00 0.00 0.00 84 1014.2
20260906065732 78 192 1.0 1.0 0.00 0.00 0.00 84 1014.3
20260906065228 78 192 0.0 1.0 0.00 0.00 0.00 83 1014.5
20260906064723 78 192 1.0 1.0 0.00 0.00 0.00 83 1014.4
20260906064219 78 193 1.0 1.0 0.00 0.00 0.00 84 1014.4
20260906063714 78 192 1.0 1.0 0.00 0.00 0.00 84 1014.4
20260906063209 78 192 2.0 2.0 0.00 0.00 0.00 84 1014.1
20260906062705 78 193 3.0 3.0 0.00 0.00 0.00 84 1014.4
20260906062204 78 189 2.0 2.0 0.00 0.00 0.00 84 1014.3
20260906061700 78 164 2.0 2.0 0.00 0.00 0.00 83 1014.2
20260906061155 78 162 1.0 1.0 0.00 0.00 0.00 83 1014.5
20260906060651 78 162 1.0 1.0 0.00 0.00 0.00 83 1014.6
20260906060148 78 162 1.0 1.0 0.00 0.00 0.00 83 1014.5
20260906055644 78 157 2.0 2.0 0.00 0.00 0.00 83 1014.6
20260906055139 78 190 2.0 2.0 0.00 0.00 0.00 83 1014.5
20260906054634 78 154 1.0 2.0 0.00 0.00 0.00 82 1014.6
20260906054129 78 146 2.0 3.0 0.00 0.00 0.00 82 1014.7
20260906053625 79 180 3.0 3.0 0.00 0.00 0.00 81 1014.5
20260906053120 79 179 3.0 3.0 0.00 0.00 0.00 81 1014.6
20260906052616 79 199 4.0 5.0 0.00 0.00 0.00 82 1014.6
20260906052112 79 180 3.0 3.0 0.00 0.00 0.00 81 1014.8
20260906051608 79 191 3.0 3.0 0.00 0.00 0.00 81 1014.6
20260906051103 79 128 1.0 1.0 0.00 0.00 0.00 80 1014.4
20260906050558 79 128 1.0 1.0 0.00 0.00 0.00 80 1014.3
20260906050054 79 128 0.0 0.0 0.00 0.00 0.00 79 1014.3
20260906045551 79 128 0.0 0.0 0.00 0.00 0.00 79 1014.4
20260906045048 79 128 1.0 1.0 0.00 0.00 0.00 80 1014.5
20260906044542 80 128 0.0 0.0 0.00 0.00 0.00 80 1014.5
20260906044038 80 128 0.0 1.0 0.00 0.00 0.00 79 1014.5
20260906043533 80 125 1.0 1.0 0.00 0.00 0.00 78 1014.6
20260906043030 81 186 1.0 1.0 0.00 0.00 0.00 77 1014.2
20260906042528 81 187 1.0 1.0 0.00 0.00 0.00 77 1014.1
20260906042023 81 190 3.0 3.0 0.00 0.00 0.00 77 1014.0
20260906041520 81 227 4.0 6.0 0.00 0.00 0.00 76 1014.0
20260906041019 81 218 3.0 3.0 0.00 0.00 0.00 76 1014.2
20260906040514 81 192 4.0 5.0 0.00 0.00 0.00 77 1014.3
20260906040010 81 181 3.0 3.0 0.00 0.00 0.00 76 1014.5
20260906035505 81 178 3.0 3.0 0.00 0.00 0.00 76 1014.6
20260906035001 81 181 3.0 3.0 0.00 0.00 0.00 77 1014.8
20260906034500 81 167 3.0 5.0 0.00 0.00 0.00 76 1014.7
20260906033955 81 151 4.0 5.0 0.00 0.00 0.00 76 1014.8
20260906033450 81 164 2.0 2.0 0.00 0.00 0.00 75 1014.7
20260906032945 82 156 3.0 5.0 0.00 0.00 0.00 75 1014.7
20260906032437 82 147 1.0 2.0 0.00 0.00 0.00 74 1014.5
20260906031937 82 159 2.0 2.0 0.00 0.00 0.00 73 1014.5
20260906031432 82 155 2.0 2.0 0.00 0.00 0.00 72 1014.5
20260906030927 82 154 3.0 3.0 0.00 0.00 0.00 72 1014.4
20260906030421 83 144 2.0 2.0 0.00 0.00 0.00 71 1014.1
20260906025916 83 175 3.0 3.0 0.00 0.00 0.00 71 1014.2
20260906025411 83 174 4.0 5.0 0.00 0.00 0.00 70 1014.3
20260906024909 83 174 3.0 3.0 0.00 0.00 0.00 70 1014.0
20260906024409 84 177 2.0 2.0 0.00 0.00 0.00 70 1014.0
20260906023904 84 180 3.0 3.0 0.00 0.00 0.00 70 1014.0
20260906023400 84 177 5.0 6.0 0.00 0.00 0.00 69 1014.0
20260906022855 84 190 4.0 5.0 0.00 0.00 0.00 69 1014.1
20260906022349 84 179 4.0 5.0 0.00 0.00 0.00 69 1014.0
20260906021846 84 165 3.0 5.0 0.00 0.00 0.00 69 1014.1
20260906021344 84 159 3.0 3.0 0.00 0.00 0.00 69 1014.0
20260906020839 85 156 4.0 6.0 0.00 0.00 0.00 69 1013.8
20260906020339 85 151 5.0 6.0 0.00 0.00 0.00 69 1013.7
20260906015834 85 156 4.0 6.0 0.00 0.00 0.00 70 1013.7
20260906015333 85 157 6.0 7.0 0.00 0.00 0.00 70 1013.9
20260906014833 85 154 3.0 3.0 0.00 0.00 0.00 71 1013.8
20260906014327 85 147 4.0 6.0 0.00 0.00 0.00 70 1013.7
20260906013824 86 138 3.0 3.0 0.00 0.00 0.00 69 1014.0
20260906013319 86 149 5.0 5.0 0.00 0.00 0.00 69 1013.4
20260906012814 86 153 4.0 5.0 0.00 0.00 0.00 67 1013.5
20260906012309 86 151 3.0 3.0 0.00 0.00 0.00 66 1013.3
20260906011803 86 126 5.0 6.0 0.00 0.00 0.00 65 1013.3
20260906011258 86 123 4.0 6.0 0.00 0.00 0.00 64 1013.0
20260906010754 87 145 4.0 6.0 0.00 0.00 0.00 64 1013.0
20260906010250 87 153 7.0 8.0 0.00 0.00 0.00 63 1012.8
20260906005745 87 153 7.0 7.0 0.00 0.00 0.00 62 1013.1
20260906005244 87 123 6.0 8.0 0.00 0.00 0.00 61 1013.0
20260906004743 87 128 6.0 8.0 0.00 0.00 0.00 61 1013.1
20260906004238 88 148 9.0 10.0 0.00 0.00 0.00 60 1013.0
20260906003733 88 175 12.0 14.0 0.00 0.00 0.00 60 1013.0
20260906003228 88 166 11.0 15.0 0.00 0.00 0.00 59 1013.0
20260906002723 89 128 5.0 7.0 0.00 0.00 0.00 60 1012.9
20260906002218 89 176 7.0 8.0 0.00 0.00 0.00 60 1013.0
20260906001714 89 151 6.0 9.0 0.00 0.00 0.00 59 1013.0
20260906001214 89 161 11.0 14.0 0.00 0.00 0.00 58 1012.8
20260906000709 89 187 8.0 9.0 0.00 0.00 0.00 58 1012.9
20260906000204 89 144 9.0 11.0 0.00 0.00 0.00 58 1012.7
20260905235703 89 147 10.0 11.0 0.00 0.00 0.00 58 1012.8
20260905235158 89 169 10.0 11.0 0.00 0.00 0.00 58 1012.7
20260905234654 90 157 9.0 13.0 0.00 0.00 0.00 56 1012.7
20260905234149 91 160 13.0 15.0 0.00 0.00 0.00 53 1012.5
20260905233644 94 155 12.0 14.0 0.00 0.00 0.00 49 1012.6
20260905233143 95 152 11.0 13.0 0.00 0.00 0.00 47 1012.3
20260905232638 97 114 13.0 16.0 0.00 0.00 0.00 45 1012.3
20260905232134 97 145 4.0 6.0 0.00 0.00 0.00 42 1012.4
20260905231629 96 115 3.0 5.0 0.00 0.00 0.00 42 1012.3
20260905231126 96 144 2.0 2.0 0.00 0.00 0.00 42 1012.1
20260905230621 97 185 5.0 7.0 0.00 0.00 0.00 41 1012.2
20260905230118 99 127 6.0 8.0 0.00 0.00 0.00 40 1012.2
20260905225613 98 119 6.0 8.0 0.00 0.00 0.00 40 1012.2
20260905225108 99 115 5.0 7.0 0.00 0.00 0.00 40 1012.1
20260905224608 99 125 1.0 2.0 0.00 0.00 0.00 39 1012.3
20260905224107 100 188 3.0 3.0 0.00 0.00 0.00 38 1012.2
20260905223604 101 232 3.0 3.0 0.00 0.00 0.00 37 1012.2
20260905223101 101 163 1.0 1.0 0.00 0.00 0.00 37 1012.1
20260905222600 101 171 1.0 1.0 0.00 0.00 0.00 38 1012.0
20260905222056 99 163 1.0 1.0 0.00 0.00 0.00 38 1012.1
20260905221552 99 153 3.0 3.0 0.00 0.00 0.00 38 1012.0
20260905221048 100 121 4.0 6.0 0.00 0.00 0.00 39 1012.0
20260905220543 101 143 2.0 2.0 0.00 0.00 0.00 38 1012.2
20260905220039 101 161 2.0 2.0 0.00 0.00 0.00 36 1012.1
20260905215538 100 167 0.0 0.0 0.00 0.00 0.00 38 1012.4
20260905215035 100 65 3.0 3.0 0.00 0.00 0.00 37 1012.7
20260905214531 99 91 1.0 1.0 0.00 0.00 0.00 39 1012.4
20260905214025 99 223 3.0 3.0 0.00 0.00 0.00 39 1012.5
20260905213521 99 234 5.0 6.0 0.00 0.00 0.00 40 1012.5
20260905213016 99 194 3.0 3.0 0.00 0.00 0.00 40 1012.5
20260905212511 99 120 0.0 1.0 0.00 0.00 0.00 40 1012.6
20260905212010 98 109 3.0 3.0 0.00 0.00 0.00 41 1012.8
20260905211506 97 105 4.0 5.0 0.00 0.00 0.00 43 1012.7
20260905211002 97 90 7.0 9.0 0.00 0.00 0.00 42 1012.8
20260905210457 96 95 1.0 1.0 0.00 0.00 0.00 44 1012.8
20260905205956 96 85 1.0 1.0 0.00 0.00 0.00 43 1013.0
20260905205451 96 74 2.0 3.0 0.00 0.00 0.00 44 1012.9
20260905204949 96 78 3.0 3.0 0.00 0.00 0.00 44 1013.0
20260905204446 96 56 3.0 5.0 0.00 0.00 0.00 43 1013.2
20260905203945 97 87 6.0 7.0 0.00 0.00 0.00 42 1013.0
20260905203440 98 58 6.0 7.0 0.00 0.00 0.00 41 1013.1
20260905202936 99 64 3.0 3.0 0.00 0.00 0.00 39 1013.1
20260905202431 100 40 2.0 2.0 0.00 0.00 0.00 38 1013.2
20260905201927 99 38 3.0 3.0 0.00 0.00 0.00 38 1013.3
20260905201422 98 122 1.0 2.0 0.00 0.00 0.00 39 1013.4
20260905200921 98 198 4.0 5.0 0.00 0.00 0.00 39 1013.3
20260905200417 97 218 3.0 5.0 0.00 0.00 0.00 40 1013.3
20260905195915 96 147 3.0 3.0 0.00 0.00 0.00 42 1013.9
20260905195411 97 115 4.0 5.0 0.00 0.00 0.00 41 1013.6
20260905194906 98 118 1.0 2.0 0.00 0.00 0.00 41 1013.7
20260905194405 99 215 3.0 3.0 0.00 0.00 0.00 38 1013.9
20260905193900 100 121 0.0 0.0 0.00 0.00 0.00 38 1013.8
20260905193355 99 330 1.0 2.0 0.00 0.00 0.00 39 1014.0
20260905192850 98 118 4.0 5.0 0.00 0.00 0.00 40 1014.0
20260905192345 98 92 5.0 6.0 0.00 0.00 0.00 41 1014.2
20260905191844 99 199 5.0 7.0 0.00 0.00 0.00 40 1014.2
20260905191344 99 160 5.0 7.0 0.00 0.00 0.00 40 1014.2
20260905190843 98 96 3.0 5.0 0.00 0.00 0.00 40 1014.2
20260905190337 97 164 6.0 8.0 0.00 0.00 0.00 43 1014.5
20260905185836 97 285 4.0 5.0 0.00 0.00 0.00 41 1014.4
20260905185331 97 27 2.0 3.0 0.00 0.00 0.00 41 1014.9
20260905184830 98 76 1.0 1.0 0.00 0.00 0.00 40 1014.6
20260905184330 98 158 5.0 6.0 0.00 0.00 0.00 39 1014.9
20260905183828 97 195 3.0 5.0 0.00 0.00 0.00 41 1014.8
20260905183324 96 97 7.0 8.0 0.00 0.00 0.00 43 1014.9
20260905182823 95 209 2.0 2.0 0.00 0.00 0.00 45 1015.1
20260905182317 95 96 5.0 6.0 0.00 0.00 0.00 44 1015.4
20260905181813 95 129 1.0 1.0 0.00 0.00 0.00 45 1015.1